#datetime,building,power
2022-07-30T00:00:00,mcc,66.50
2022-07-30T00:01:00,mcc,66.72
2022-07-30T00:02:00,mcc,62.49
2022-07-30T00:03:00,mcc,62.46
2022-07-30T00:04:00,mcc,62.07
2022-07-30T00:05:00,mcc,60.65
2022-07-30T00:06:00,mcc,61.45
2022-07-30T00:07:00,mcc,59.92
2022-07-30T00:08:00,mcc,61.87
2022-07-30T00:09:00,mcc,61.44
2022-07-30T00:10:00,mcc,60.44
2022-07-30T00:11:00,mcc,63.09
2022-07-30T00:12:00,mcc,59.85
2022-07-30T00:13:00,mcc,57.92
2022-07-30T00:14:00,mcc,57.44
2022-07-30T00:15:00,mcc,72.18
2022-07-30T00:16:00,mcc,58.90
2022-07-30T00:17:00,mcc,63.18
2022-07-30T00:18:00,mcc,57.27
2022-07-30T00:19:00,mcc,53.45
2022-07-30T00:20:00,mcc,53.23
2022-07-30T00:21:00,mcc,57.87
2022-07-30T00:22:00,mcc,56.37
2022-07-30T00:23:00,mcc,55.19
2022-07-30T00:24:00,mcc,57.69
2022-07-30T00:25:00,mcc,52.19
2022-07-30T00:26:00,mcc,52.52
2022-07-30T00:27:00,mcc,52.82
2022-07-30T00:28:00,mcc,52.98
2022-07-30T00:29:00,mcc,52.42
2022-07-30T00:30:00,mcc,64.90
2022-07-30T00:31:00,mcc,51.07
2022-07-30T00:32:00,mcc,49.30
2022-07-30T00:33:00,mcc,51.21
2022-07-30T00:34:00,mcc,55.98
2022-07-30T00:35:00,mcc,52.91
2022-07-30T00:36:00,mcc,53.99
2022-07-30T00:37:00,mcc,55.87
2022-07-30T00:38:00,mcc,53.99
2022-07-30T00:39:00,mcc,53.79
2022-07-30T00:40:00,mcc,53.22
2022-07-30T00:41:00,mcc,52.98
2022-07-30T00:42:00,mcc,51.81
2022-07-30T00:43:00,mcc,51.79
2022-07-30T00:44:00,mcc,53.06
2022-07-30T00:45:00,mcc,54.13
2022-07-30T00:46:00,mcc,55.45
2022-07-30T00:47:00,mcc,54.79
2022-07-30T00:48:00,mcc,52.72
2022-07-30T00:49:00,mcc,51.81
2022-07-30T00:50:00,mcc,52.30
2022-07-30T00:51:00,mcc,52.10
2022-07-30T00:52:00,mcc,51.25
2022-07-30T00:53:00,mcc,49.70
2022-07-30T00:54:00,mcc,51.18
2022-07-30T00:55:00,mcc,58.00
2022-07-30T00:56:00,mcc,49.99
2022-07-30T00:57:00,mcc,51.20
2022-07-30T00:58:00,mcc,47.77
2022-07-30T00:59:00,mcc,50.22
2022-07-30T01:00:00,mcc,52.27
2022-07-30T01:01:00,mcc,50.69
2022-07-30T01:02:00,mcc,52.00
2022-07-30T01:03:00,mcc,53.72
2022-07-30T01:04:00,mcc,51.66
2022-07-30T01:05:00,mcc,51.87
2022-07-30T01:06:00,mcc,51.15
2022-07-30T01:07:00,mcc,49.99
2022-07-30T01:08:00,mcc,49.85
2022-07-30T01:09:00,mcc,49.62
2022-07-30T01:10:00,mcc,50.33
2022-07-30T01:11:00,mcc,48.22
2022-07-30T01:12:00,mcc,55.97
2022-07-30T01:13:00,mcc,58.81
2022-07-30T01:14:00,mcc,55.86
2022-07-30T01:15:00,mcc,54.72
2022-07-30T01:16:00,mcc,53.95
2022-07-30T01:17:00,mcc,54.42
2022-07-30T01:18:00,mcc,57.02
2022-07-30T01:19:00,mcc,56.27
2022-07-30T01:20:00,mcc,58.05
2022-07-30T01:21:00,mcc,56.16
2022-07-30T01:22:00,mcc,56.52
2022-07-30T01:23:00,mcc,59.68
2022-07-30T01:24:00,mcc,58.91
2022-07-30T01:25:00,mcc,58.66
2022-07-30T01:26:00,mcc,58.73
2022-07-30T01:27:00,mcc,58.91
2022-07-30T01:28:00,mcc,58.62
2022-07-30T01:29:00,mcc,60.63
2022-07-30T01:30:00,mcc,61.14
2022-07-30T01:31:00,mcc,59.92
2022-07-30T01:32:00,mcc,60.71
2022-07-30T01:33:00,mcc,72.56
2022-07-30T01:34:00,mcc,60.39
2022-07-30T01:35:00,mcc,58.36
2022-07-30T01:36:00,mcc,59.09
2022-07-30T01:37:00,mcc,54.74
2022-07-30T01:38:00,mcc,56.41
2022-07-30T01:39:00,mcc,59.07
2022-07-30T01:40:00,mcc,58.59
2022-07-30T01:41:00,mcc,55.75
2022-07-30T01:42:00,mcc,55.41
2022-07-30T01:43:00,mcc,57.94
2022-07-30T01:44:00,mcc,56.16
2022-07-30T01:45:00,mcc,50.60
2022-07-30T01:46:00,mcc,53.26
2022-07-30T01:47:00,mcc,51.21
2022-07-30T01:48:00,mcc,51.60
2022-07-30T01:49:00,mcc,53.46
2022-07-30T01:50:00,mcc,53.69
2022-07-30T01:51:00,mcc,54.85
2022-07-30T01:52:00,mcc,52.52
2022-07-30T01:53:00,mcc,67.94
2022-07-30T01:54:00,mcc,53.42
2022-07-30T01:55:00,mcc,53.29
2022-07-30T01:56:00,mcc,55.38
2022-07-30T01:57:00,mcc,52.05
2022-07-30T01:58:00,mcc,51.26
2022-07-30T01:59:00,mcc,61.14
2022-07-30T02:00:00,mcc,48.91
2022-07-30T02:01:00,mcc,57.60
2022-07-30T02:02:00,mcc,61.54
2022-07-30T02:03:00,mcc,60.24
2022-07-30T02:04:00,mcc,59.88
2022-07-30T02:05:00,mcc,50.55
2022-07-30T02:06:00,mcc,49.88
2022-07-30T02:07:00,mcc,50.41
2022-07-30T02:08:00,mcc,50.98
2022-07-30T02:09:00,mcc,50.41
2022-07-30T02:10:00,mcc,49.57
2022-07-30T02:11:00,mcc,50.74
2022-07-30T02:12:00,mcc,60.22
2022-07-30T02:13:00,mcc,54.25
2022-07-30T02:14:00,mcc,53.81
2022-07-30T02:15:00,mcc,57.79
2022-07-30T02:16:00,mcc,54.12
2022-07-30T02:17:00,mcc,54.57
2022-07-30T02:18:00,mcc,57.76
2022-07-30T02:19:00,mcc,57.71
2022-07-30T02:20:00,mcc,55.94
2022-07-30T02:21:00,mcc,56.47
2022-07-30T02:22:00,mcc,51.77
2022-07-30T02:23:00,mcc,49.45
2022-07-30T02:24:00,mcc,51.09
2022-07-30T02:25:00,mcc,51.43
2022-07-30T02:26:00,mcc,48.81
2022-07-30T02:27:00,mcc,47.52
2022-07-30T02:28:00,mcc,47.01
2022-07-30T02:29:00,mcc,47.06
2022-07-30T02:30:00,mcc,47.90
2022-07-30T02:31:00,mcc,48.12
2022-07-30T02:32:00,mcc,50.09
2022-07-30T02:33:00,mcc,48.34
2022-07-30T02:34:00,mcc,49.71
2022-07-30T02:35:00,mcc,51.27
2022-07-30T02:36:00,mcc,62.04
2022-07-30T02:37:00,mcc,63.51
2022-07-30T02:38:00,mcc,52.93
2022-07-30T02:39:00,mcc,52.03
2022-07-30T02:40:00,mcc,53.71
2022-07-30T02:41:00,mcc,57.42
2022-07-30T02:42:00,mcc,57.76
2022-07-30T02:43:00,mcc,57.09
2022-07-30T02:44:00,mcc,53.75
2022-07-30T02:45:00,mcc,54.23
2022-07-30T02:46:00,mcc,53.23
2022-07-30T02:47:00,mcc,51.58
2022-07-30T02:48:00,mcc,55.67
2022-07-30T02:49:00,mcc,48.02
2022-07-30T02:50:00,mcc,49.66
2022-07-30T02:51:00,mcc,59.75
2022-07-30T02:52:00,mcc,50.09
2022-07-30T02:53:00,mcc,50.16
2022-07-30T02:54:00,mcc,50.57
2022-07-30T02:55:00,mcc,50.20
2022-07-30T02:56:00,mcc,59.08
2022-07-30T02:57:00,mcc,50.47
2022-07-30T02:58:00,mcc,52.37
2022-07-30T02:59:00,mcc,51.29
2022-07-30T03:00:00,mcc,50.90
2022-07-30T03:01:00,mcc,54.54
2022-07-30T03:02:00,mcc,52.00
2022-07-30T03:03:00,mcc,50.72
2022-07-30T03:04:00,mcc,49.62
2022-07-30T03:05:00,mcc,50.11
2022-07-30T03:06:00,mcc,50.07
2022-07-30T03:07:00,mcc,50.89
2022-07-30T03:08:00,mcc,51.19
2022-07-30T03:09:00,mcc,50.72
2022-07-30T03:10:00,mcc,51.37
2022-07-30T03:11:00,mcc,60.99
2022-07-30T03:12:00,mcc,51.87
2022-07-30T03:13:00,mcc,49.11
2022-07-30T03:14:00,mcc,49.52
2022-07-30T03:15:00,mcc,47.44
2022-07-30T03:16:00,mcc,46.01
2022-07-30T03:17:00,mcc,48.98
2022-07-30T03:18:00,mcc,46.25
2022-07-30T03:19:00,mcc,47.75
2022-07-30T03:20:00,mcc,45.70
2022-07-30T03:21:00,mcc,44.11
2022-07-30T03:22:00,mcc,49.26
2022-07-30T03:23:00,mcc,49.97
2022-07-30T03:24:00,mcc,49.02
2022-07-30T03:25:00,mcc,46.29
2022-07-30T03:26:00,mcc,46.25
2022-07-30T03:27:00,mcc,45.55
2022-07-30T03:28:00,mcc,44.94
2022-07-30T03:29:00,mcc,44.52
2022-07-30T03:30:00,mcc,44.29
2022-07-30T03:31:00,mcc,43.96
2022-07-30T03:32:00,mcc,46.05
2022-07-30T03:33:00,mcc,46.97
2022-07-30T03:34:00,mcc,49.07
2022-07-30T03:35:00,mcc,47.58
2022-07-30T03:36:00,mcc,47.12
2022-07-30T03:37:00,mcc,49.13
2022-07-30T03:38:00,mcc,49.07
2022-07-30T03:39:00,mcc,49.26
2022-07-30T03:40:00,mcc,49.67
2022-07-30T03:41:00,mcc,46.79
2022-07-30T03:42:00,mcc,47.87
2022-07-30T03:43:00,mcc,49.16
2022-07-30T03:44:00,mcc,48.49
2022-07-30T03:45:00,mcc,46.79
2022-07-30T03:46:00,mcc,45.81
2022-07-30T03:47:00,mcc,47.61
2022-07-30T03:48:00,mcc,44.17
2022-07-30T03:49:00,mcc,43.80
2022-07-30T03:50:00,mcc,54.41
2022-07-30T03:51:00,mcc,44.22
2022-07-30T03:52:00,mcc,42.94
2022-07-30T03:53:00,mcc,45.27
2022-07-30T03:54:00,mcc,43.17
2022-07-30T03:55:00,mcc,44.13
2022-07-30T03:56:00,mcc,45.75
2022-07-30T03:57:00,mcc,49.83
2022-07-30T03:58:00,mcc,46.04
2022-07-30T03:59:00,mcc,45.70
2022-07-30T04:00:00,mcc,49.56
2022-07-30T04:01:00,mcc,48.93
2022-07-30T04:02:00,mcc,49.03
2022-07-30T04:03:00,mcc,50.68
2022-07-30T04:04:00,mcc,46.81
2022-07-30T04:05:00,mcc,45.46
2022-07-30T04:06:00,mcc,47.85
2022-07-30T04:07:00,mcc,47.83
2022-07-30T04:08:00,mcc,47.64
2022-07-30T04:09:00,mcc,46.96
2022-07-30T04:10:00,mcc,51.09
2022-07-30T04:11:00,mcc,47.15
2022-07-30T04:12:00,mcc,48.06
2022-07-30T04:13:00,mcc,48.88
2022-07-30T04:14:00,mcc,59.45
2022-07-30T04:15:00,mcc,58.28
2022-07-30T04:16:00,mcc,48.34
2022-07-30T04:17:00,mcc,43.57
2022-07-30T04:18:00,mcc,43.76
2022-07-30T04:19:00,mcc,44.34
2022-07-30T04:20:00,mcc,43.38
2022-07-30T04:21:00,mcc,42.93
2022-07-30T04:22:00,mcc,41.54
2022-07-30T04:23:00,mcc,46.01
2022-07-30T04:24:00,mcc,44.29
2022-07-30T04:25:00,mcc,45.48
2022-07-30T04:26:00,mcc,46.72
2022-07-30T04:27:00,mcc,44.28
2022-07-30T04:28:00,mcc,54.00
2022-07-30T04:29:00,mcc,48.42
2022-07-30T04:30:00,mcc,47.86
2022-07-30T04:31:00,mcc,45.47
2022-07-30T04:32:00,mcc,45.64
2022-07-30T04:33:00,mcc,46.54
2022-07-30T04:34:00,mcc,46.41
2022-07-30T04:35:00,mcc,46.46
2022-07-30T04:36:00,mcc,58.54
2022-07-30T04:37:00,mcc,55.07
2022-07-30T04:38:00,mcc,55.88
2022-07-30T04:39:00,mcc,58.20
2022-07-30T04:40:00,mcc,47.03
2022-07-30T04:41:00,mcc,46.60
2022-07-30T04:42:00,mcc,45.26
2022-07-30T04:43:00,mcc,45.99
2022-07-30T04:44:00,mcc,46.28
2022-07-30T04:45:00,mcc,47.23
2022-07-30T04:46:00,mcc,51.17
2022-07-30T04:47:00,mcc,47.02
2022-07-30T04:48:00,mcc,46.09
2022-07-30T04:49:00,mcc,51.39
2022-07-30T04:50:00,mcc,47.14
2022-07-30T04:51:00,mcc,48.07
2022-07-30T04:52:00,mcc,49.81
2022-07-30T04:53:00,mcc,47.58
2022-07-30T04:54:00,mcc,47.78
2022-07-30T04:55:00,mcc,48.56
2022-07-30T04:56:00,mcc,48.57
2022-07-30T04:57:00,mcc,46.07
2022-07-30T04:58:00,mcc,45.16
2022-07-30T04:59:00,mcc,47.67
2022-07-30T05:00:00,mcc,44.68
2022-07-30T05:01:00,mcc,46.10
2022-07-30T05:02:00,mcc,52.40
2022-07-30T05:03:00,mcc,50.83
2022-07-30T05:04:00,mcc,48.80
2022-07-30T05:05:00,mcc,49.34
2022-07-30T05:06:00,mcc,55.16
2022-07-30T05:07:00,mcc,46.05
2022-07-30T05:08:00,mcc,45.38
2022-07-30T05:09:00,mcc,44.61
2022-07-30T05:10:00,mcc,44.55
2022-07-30T05:11:00,mcc,46.34
2022-07-30T05:12:00,mcc,49.71
2022-07-30T05:13:00,mcc,47.14
2022-07-30T05:14:00,mcc,48.15
2022-07-30T05:15:00,mcc,50.45
2022-07-30T05:16:00,mcc,58.79
2022-07-30T05:17:00,mcc,48.56
2022-07-30T05:18:00,mcc,48.34
2022-07-30T05:19:00,mcc,48.13
2022-07-30T05:20:00,mcc,47.41
2022-07-30T05:21:00,mcc,48.14
2022-07-30T05:22:00,mcc,47.98
2022-07-30T05:23:00,mcc,44.27
2022-07-30T05:24:00,mcc,44.18
2022-07-30T05:25:00,mcc,46.59
2022-07-30T05:26:00,mcc,51.65
2022-07-30T05:27:00,mcc,43.92
2022-07-30T05:28:00,mcc,44.90
2022-07-30T05:29:00,mcc,43.83
2022-07-30T05:30:00,mcc,44.84
2022-07-30T05:31:00,mcc,44.81
2022-07-30T05:32:00,mcc,45.66
2022-07-30T05:33:00,mcc,45.82
2022-07-30T05:34:00,mcc,44.81
2022-07-30T05:35:00,mcc,45.55
2022-07-30T05:36:00,mcc,43.99
2022-07-30T05:37:00,mcc,45.35
2022-07-30T05:38:00,mcc,47.34
2022-07-30T05:39:00,mcc,43.31
2022-07-30T05:40:00,mcc,55.69
2022-07-30T05:41:00,mcc,60.58
2022-07-30T05:42:00,mcc,46.29
2022-07-30T05:43:00,mcc,47.64
2022-07-30T05:44:00,mcc,47.74
2022-07-30T05:45:00,mcc,47.56
2022-07-30T05:46:00,mcc,55.43
2022-07-30T05:47:00,mcc,46.99
2022-07-30T05:48:00,mcc,49.91
2022-07-30T05:49:00,mcc,49.20
2022-07-30T05:50:00,mcc,45.34
2022-07-30T05:51:00,mcc,46.51
2022-07-30T05:52:00,mcc,44.01
2022-07-30T05:53:00,mcc,46.29
2022-07-30T05:54:00,mcc,45.13
2022-07-30T05:55:00,mcc,45.68
2022-07-30T05:56:00,mcc,46.45
2022-07-30T05:57:00,mcc,42.98
2022-07-30T05:58:00,mcc,47.54
2022-07-30T05:59:00,mcc,46.33
2022-07-30T06:00:00,mcc,45.09
2022-07-30T06:01:00,mcc,46.37
2022-07-30T06:02:00,mcc,45.10
2022-07-30T06:03:00,mcc,42.51
2022-07-30T06:04:00,mcc,44.80
2022-07-30T06:05:00,mcc,42.25
2022-07-30T06:06:00,mcc,52.27
2022-07-30T06:07:00,mcc,44.25
2022-07-30T06:08:00,mcc,43.80
2022-07-30T06:09:00,mcc,42.48
2022-07-30T06:10:00,mcc,42.15
2022-07-30T06:11:00,mcc,43.28
2022-07-30T06:12:00,mcc,43.36
2022-07-30T06:13:00,mcc,44.99
2022-07-30T06:14:00,mcc,48.39
2022-07-30T06:15:00,mcc,43.07
2022-07-30T06:16:00,mcc,45.50
2022-07-30T06:17:00,mcc,47.45
2022-07-30T06:18:00,mcc,44.01
2022-07-30T06:19:00,mcc,44.49
2022-07-30T06:20:00,mcc,46.45
2022-07-30T06:21:00,mcc,44.95
2022-07-30T06:22:00,mcc,45.71
2022-07-30T06:23:00,mcc,46.18
2022-07-30T06:24:00,mcc,45.98
2022-07-30T06:25:00,mcc,50.89
2022-07-30T06:26:00,mcc,43.87
2022-07-30T06:27:00,mcc,48.18
2022-07-30T06:28:00,mcc,45.34
2022-07-30T06:29:00,mcc,45.91
2022-07-30T06:30:00,mcc,45.43
2022-07-30T06:31:00,mcc,45.76
2022-07-30T06:32:00,mcc,45.47
2022-07-30T06:33:00,mcc,46.65
2022-07-30T06:34:00,mcc,52.26
2022-07-30T06:35:00,mcc,48.14
2022-07-30T06:36:00,mcc,49.06
2022-07-30T06:37:00,mcc,50.45
2022-07-30T06:38:00,mcc,49.71
2022-07-30T06:39:00,mcc,49.07
2022-07-30T06:40:00,mcc,50.55
2022-07-30T06:41:00,mcc,47.71
2022-07-30T06:42:00,mcc,45.91
2022-07-30T06:43:00,mcc,46.30
2022-07-30T06:44:00,mcc,54.00
2022-07-30T06:45:00,mcc,45.77
2022-07-30T06:46:00,mcc,45.02
2022-07-30T06:47:00,mcc,47.70
2022-07-30T06:48:00,mcc,45.68
2022-07-30T06:49:00,mcc,45.40
2022-07-30T06:50:00,mcc,47.65
2022-07-30T06:51:00,mcc,44.29
2022-07-30T06:52:00,mcc,44.15
2022-07-30T06:53:00,mcc,42.83
2022-07-30T06:54:00,mcc,46.11
2022-07-30T06:55:00,mcc,43.92
2022-07-30T06:56:00,mcc,45.11
2022-07-30T06:57:00,mcc,48.19
2022-07-30T06:58:00,mcc,44.98
2022-07-30T06:59:00,mcc,44.84
2022-07-30T07:00:00,mcc,46.70
2022-07-30T07:01:00,mcc,47.24
2022-07-30T07:02:00,mcc,55.36
2022-07-30T07:03:00,mcc,64.25
2022-07-30T07:04:00,mcc,53.34
2022-07-30T07:05:00,mcc,65.84
2022-07-30T07:06:00,mcc,50.85
2022-07-30T07:07:00,mcc,52.55
2022-07-30T07:08:00,mcc,51.53
2022-07-30T07:09:00,mcc,49.35
2022-07-30T07:10:00,mcc,43.65
2022-07-30T07:11:00,mcc,44.45
2022-07-30T07:12:00,mcc,44.84
2022-07-30T07:13:00,mcc,47.88
2022-07-30T07:14:00,mcc,44.27
2022-07-30T07:15:00,mcc,44.03
2022-07-30T07:16:00,mcc,46.26
2022-07-30T07:17:00,mcc,44.17
2022-07-30T07:18:00,mcc,45.92
2022-07-30T07:19:00,mcc,46.61
2022-07-30T07:20:00,mcc,43.87
2022-07-30T07:21:00,mcc,45.21
2022-07-30T07:22:00,mcc,44.79
2022-07-30T07:23:00,mcc,44.13
2022-07-30T07:24:00,mcc,43.42
2022-07-30T07:25:00,mcc,44.34
2022-07-30T07:26:00,mcc,46.04
2022-07-30T07:27:00,mcc,45.07
2022-07-30T07:28:00,mcc,45.36
2022-07-30T07:29:00,mcc,48.92
2022-07-30T07:30:00,mcc,46.00
2022-07-30T07:31:00,mcc,46.62
2022-07-30T07:32:00,mcc,45.01
2022-07-30T07:33:00,mcc,48.58
2022-07-30T07:34:00,mcc,47.32
2022-07-30T07:35:00,mcc,45.78
2022-07-30T07:36:00,mcc,45.88
2022-07-30T07:37:00,mcc,42.98
2022-07-30T07:38:00,mcc,42.73
2022-07-30T07:39:00,mcc,45.82
2022-07-30T07:40:00,mcc,47.59
2022-07-30T07:41:00,mcc,49.19
2022-07-30T07:42:00,mcc,50.04
2022-07-30T07:43:00,mcc,47.15
2022-07-30T07:44:00,mcc,46.05
2022-07-30T07:45:00,mcc,45.75
2022-07-30T07:46:00,mcc,47.88
2022-07-30T07:47:00,mcc,45.39
2022-07-30T07:48:00,mcc,41.16
2022-07-30T07:49:00,mcc,43.18
2022-07-30T07:50:00,mcc,41.64
2022-07-30T07:51:00,mcc,44.17
2022-07-30T07:52:00,mcc,47.80
2022-07-30T07:53:00,mcc,44.68
2022-07-30T07:54:00,mcc,43.83
2022-07-30T07:55:00,mcc,44.74
2022-07-30T07:56:00,mcc,58.68
2022-07-30T07:57:00,mcc,47.08
2022-07-30T07:58:00,mcc,54.75
2022-07-30T07:59:00,mcc,57.48
2022-07-30T08:00:00,mcc,52.41
2022-07-30T08:01:00,mcc,60.14
2022-07-30T08:02:00,mcc,44.04
2022-07-30T08:03:00,mcc,43.88
2022-07-30T08:04:00,mcc,43.29
2022-07-30T08:05:00,mcc,41.88
2022-07-30T08:06:00,mcc,44.29
2022-07-30T08:07:00,mcc,44.25
2022-07-30T08:08:00,mcc,41.82
2022-07-30T08:09:00,mcc,43.61
2022-07-30T08:10:00,mcc,42.08
2022-07-30T08:11:00,mcc,43.98
2022-07-30T08:12:00,mcc,48.31
2022-07-30T08:13:00,mcc,48.06
2022-07-30T08:14:00,mcc,47.63
2022-07-30T08:15:00,mcc,48.10
2022-07-30T08:16:00,mcc,49.79
2022-07-30T08:17:00,mcc,49.82
2022-07-30T08:18:00,mcc,46.84
2022-07-30T08:19:00,mcc,47.00
2022-07-30T08:20:00,mcc,52.14
2022-07-30T08:21:00,mcc,45.46
2022-07-30T08:22:00,mcc,46.63
2022-07-30T08:23:00,mcc,43.52
2022-07-30T08:24:00,mcc,43.67
2022-07-30T08:25:00,mcc,45.39
2022-07-30T08:26:00,mcc,44.08
2022-07-30T08:27:00,mcc,44.39
2022-07-30T08:28:00,mcc,44.51
2022-07-30T08:29:00,mcc,42.47
2022-07-30T08:30:00,mcc,43.01
2022-07-30T08:31:00,mcc,45.93
2022-07-30T08:32:00,mcc,60.42
2022-07-30T08:33:00,mcc,45.84
2022-07-30T08:34:00,mcc,44.00
2022-07-30T08:35:00,mcc,44.12
2022-07-30T08:36:00,mcc,43.39
2022-07-30T08:37:00,mcc,43.55
2022-07-30T08:38:00,mcc,43.85
2022-07-30T08:39:00,mcc,51.81
2022-07-30T08:40:00,mcc,46.07
2022-07-30T08:41:00,mcc,45.29
2022-07-30T08:42:00,mcc,54.89
2022-07-30T08:43:00,mcc,45.11
2022-07-30T08:44:00,mcc,45.21
2022-07-30T08:45:00,mcc,47.33
2022-07-30T08:46:00,mcc,47.30
2022-07-30T08:47:00,mcc,46.78
2022-07-30T08:48:00,mcc,47.10
2022-07-30T08:49:00,mcc,47.80
2022-07-30T08:50:00,mcc,49.03
2022-07-30T08:51:00,mcc,48.27
2022-07-30T08:52:00,mcc,50.70
2022-07-30T08:53:00,mcc,47.71
2022-07-30T08:54:00,mcc,43.32
2022-07-30T08:55:00,mcc,44.68
2022-07-30T08:56:00,mcc,41.11
2022-07-30T08:57:00,mcc,42.06
2022-07-30T08:58:00,mcc,51.80
2022-07-30T08:59:00,mcc,42.30
2022-07-30T09:00:00,mcc,45.69
2022-07-30T09:01:00,mcc,44.34
2022-07-30T09:02:00,mcc,45.54
2022-07-30T09:03:00,mcc,44.59
2022-07-30T09:04:00,mcc,46.30
2022-07-30T09:05:00,mcc,48.94
2022-07-30T09:06:00,mcc,49.18
2022-07-30T09:07:00,mcc,48.35
2022-07-30T09:08:00,mcc,45.91
2022-07-30T09:09:00,mcc,46.55
2022-07-30T09:10:00,mcc,46.89
2022-07-30T09:11:00,mcc,47.94
2022-07-30T09:12:00,mcc,49.42
2022-07-30T09:13:00,mcc,47.40
2022-07-30T09:14:00,mcc,46.11
2022-07-30T09:15:00,mcc,48.08
2022-07-30T09:16:00,mcc,45.70
2022-07-30T09:17:00,mcc,52.47
2022-07-30T09:18:00,mcc,46.48
2022-07-30T09:19:00,mcc,45.83
2022-07-30T09:20:00,mcc,46.40
2022-07-30T09:21:00,mcc,46.47
2022-07-30T09:22:00,mcc,43.81
2022-07-30T09:23:00,mcc,54.81
2022-07-30T09:24:00,mcc,54.10
2022-07-30T09:25:00,mcc,55.51
2022-07-30T09:26:00,mcc,53.98
2022-07-30T09:27:00,mcc,45.91
2022-07-30T09:28:00,mcc,51.38
2022-07-30T09:29:00,mcc,47.01
2022-07-30T09:30:00,mcc,43.83
2022-07-30T09:31:00,mcc,45.22
2022-07-30T09:32:00,mcc,42.70
2022-07-30T09:33:00,mcc,43.67
2022-07-30T09:34:00,mcc,44.06
2022-07-30T09:35:00,mcc,44.46
2022-07-30T09:36:00,mcc,54.83
2022-07-30T09:37:00,mcc,46.72
2022-07-30T09:38:00,mcc,48.33
2022-07-30T09:39:00,mcc,47.09
2022-07-30T09:40:00,mcc,47.07
2022-07-30T09:41:00,mcc,49.50
2022-07-30T09:42:00,mcc,48.18
2022-07-30T09:43:00,mcc,47.29
2022-07-30T09:44:00,mcc,46.06
2022-07-30T09:45:00,mcc,48.57
2022-07-30T09:46:00,mcc,48.45
2022-07-30T09:47:00,mcc,45.64
2022-07-30T09:48:00,mcc,47.96
2022-07-30T09:49:00,mcc,45.68
2022-07-30T09:50:00,mcc,43.94
2022-07-30T09:51:00,mcc,47.00
2022-07-30T09:52:00,mcc,45.06
2022-07-30T09:53:00,mcc,45.57
2022-07-30T09:54:00,mcc,44.18
2022-07-30T09:55:00,mcc,55.17
2022-07-30T09:56:00,mcc,50.48
2022-07-30T09:57:00,mcc,42.24
2022-07-30T09:58:00,mcc,43.89
2022-07-30T09:59:00,mcc,42.31
2022-07-30T10:00:00,mcc,42.47
2022-07-30T10:01:00,mcc,46.66
2022-07-30T10:02:00,mcc,43.94
2022-07-30T10:03:00,mcc,43.48
2022-07-30T10:04:00,mcc,46.97
2022-07-30T10:05:00,mcc,44.11
2022-07-30T10:06:00,mcc,45.12
2022-07-30T10:07:00,mcc,48.15
2022-07-30T10:08:00,mcc,47.82
2022-07-30T10:09:00,mcc,49.57
2022-07-30T10:10:00,mcc,49.26
2022-07-30T10:11:00,mcc,50.51
2022-07-30T10:12:00,mcc,53.31
2022-07-30T10:13:00,mcc,51.09
2022-07-30T10:14:00,mcc,62.01
2022-07-30T10:15:00,mcc,50.56
2022-07-30T10:16:00,mcc,48.96
2022-07-30T10:17:00,mcc,49.48
2022-07-30T10:18:00,mcc,47.89
2022-07-30T10:19:00,mcc,53.26
2022-07-30T10:20:00,mcc,54.85
2022-07-30T10:21:00,mcc,52.22
2022-07-30T10:22:00,mcc,52.13
2022-07-30T10:23:00,mcc,49.72
2022-07-30T10:24:00,mcc,51.65
2022-07-30T10:25:00,mcc,48.90
2022-07-30T10:26:00,mcc,48.44
2022-07-30T10:27:00,mcc,50.32
2022-07-30T10:28:00,mcc,48.38
2022-07-30T10:29:00,mcc,48.54
2022-07-30T10:30:00,mcc,50.33
2022-07-30T10:31:00,mcc,49.15
2022-07-30T10:32:00,mcc,48.66
2022-07-30T10:33:00,mcc,48.04
2022-07-30T10:34:00,mcc,48.66
2022-07-30T10:35:00,mcc,48.03
2022-07-30T10:36:00,mcc,52.25
2022-07-30T10:37:00,mcc,54.14
2022-07-30T10:38:00,mcc,55.46
2022-07-30T10:39:00,mcc,53.75
2022-07-30T10:40:00,mcc,58.51
2022-07-30T10:41:00,mcc,53.99
2022-07-30T10:42:00,mcc,53.53
2022-07-30T10:43:00,mcc,56.21
2022-07-30T10:44:00,mcc,50.96
2022-07-30T10:45:00,mcc,50.17
2022-07-30T10:46:00,mcc,50.05
2022-07-30T10:47:00,mcc,52.93
2022-07-30T10:48:00,mcc,51.18
2022-07-30T10:49:00,mcc,50.12
2022-07-30T10:50:00,mcc,49.02
2022-07-30T10:51:00,mcc,50.11
2022-07-30T10:52:00,mcc,59.73
2022-07-30T10:53:00,mcc,53.14
2022-07-30T10:54:00,mcc,51.12
2022-07-30T10:55:00,mcc,52.26
2022-07-30T10:56:00,mcc,49.00
2022-07-30T10:57:00,mcc,50.80
2022-07-30T10:58:00,mcc,51.72
2022-07-30T10:59:00,mcc,51.38
2022-07-30T11:00:00,mcc,52.77
2022-07-30T11:01:00,mcc,49.68
2022-07-30T11:02:00,mcc,48.77
2022-07-30T11:03:00,mcc,51.40
2022-07-30T11:04:00,mcc,52.49
2022-07-30T11:05:00,mcc,55.10
2022-07-30T11:06:00,mcc,57.54
2022-07-30T11:07:00,mcc,54.76
2022-07-30T11:08:00,mcc,55.32
2022-07-30T11:09:00,mcc,56.37
2022-07-30T11:10:00,mcc,55.16
2022-07-30T11:11:00,mcc,55.41
2022-07-30T11:12:00,mcc,63.32
2022-07-30T11:13:00,mcc,51.11
2022-07-30T11:14:00,mcc,50.67
2022-07-30T11:15:00,mcc,49.87
2022-07-30T11:16:00,mcc,50.07
2022-07-30T11:17:00,mcc,60.57
2022-07-30T11:18:00,mcc,60.17
2022-07-30T11:19:00,mcc,48.59
2022-07-30T11:20:00,mcc,47.98
2022-07-30T11:21:00,mcc,48.86
2022-07-30T11:22:00,mcc,52.18
2022-07-30T11:23:00,mcc,51.42
2022-07-30T11:24:00,mcc,49.64
2022-07-30T11:25:00,mcc,49.61
2022-07-30T11:26:00,mcc,50.67
2022-07-30T11:27:00,mcc,51.61
2022-07-30T11:28:00,mcc,51.71
2022-07-30T11:29:00,mcc,53.86
2022-07-30T11:30:00,mcc,50.18
2022-07-30T11:31:00,mcc,58.09
2022-07-30T11:32:00,mcc,52.46
2022-07-30T11:33:00,mcc,51.06
2022-07-30T11:34:00,mcc,50.90
2022-07-30T11:35:00,mcc,55.69
2022-07-30T11:36:00,mcc,54.91
2022-07-30T11:37:00,mcc,52.49
2022-07-30T11:38:00,mcc,55.63
2022-07-30T11:39:00,mcc,54.76
2022-07-30T11:40:00,mcc,53.59
2022-07-30T11:41:00,mcc,50.19
2022-07-30T11:42:00,mcc,50.65
2022-07-30T11:43:00,mcc,50.52
2022-07-30T11:44:00,mcc,51.12
2022-07-30T11:45:00,mcc,51.49
2022-07-30T11:46:00,mcc,52.29
2022-07-30T11:47:00,mcc,49.06
2022-07-30T11:48:00,mcc,51.35
2022-07-30T11:49:00,mcc,49.13
2022-07-30T11:50:00,mcc,57.90
2022-07-30T11:51:00,mcc,52.75
2022-07-30T11:52:00,mcc,49.58
2022-07-30T11:53:00,mcc,48.84
2022-07-30T11:54:00,mcc,53.15
2022-07-30T11:55:00,mcc,52.80
2022-07-30T11:56:00,mcc,54.25
2022-07-30T11:57:00,mcc,55.00
2022-07-30T11:58:00,mcc,57.89
2022-07-30T11:59:00,mcc,56.19
2022-07-30T12:00:00,mcc,56.81
2022-07-30T12:01:00,mcc,58.03
2022-07-30T12:02:00,mcc,56.45
2022-07-30T12:03:00,mcc,57.52
2022-07-30T12:04:00,mcc,58.23
2022-07-30T12:05:00,mcc,56.23
2022-07-30T12:06:00,mcc,55.57
2022-07-30T12:07:00,mcc,56.49
2022-07-30T12:08:00,mcc,55.81
2022-07-30T12:09:00,mcc,53.40
2022-07-30T12:10:00,mcc,60.75
2022-07-30T12:11:00,mcc,54.14
2022-07-30T12:12:00,mcc,53.24
2022-07-30T12:13:00,mcc,53.71
2022-07-30T12:14:00,mcc,57.82
2022-07-30T12:15:00,mcc,54.98
2022-07-30T12:16:00,mcc,54.66
2022-07-30T12:17:00,mcc,55.93
2022-07-30T12:18:00,mcc,55.60
2022-07-30T12:19:00,mcc,56.75
2022-07-30T12:20:00,mcc,59.00
2022-07-30T12:21:00,mcc,57.90
2022-07-30T12:22:00,mcc,57.50
2022-07-30T12:23:00,mcc,59.87
2022-07-30T12:24:00,mcc,59.41
2022-07-30T12:25:00,mcc,59.02
2022-07-30T12:26:00,mcc,59.40
2022-07-30T12:27:00,mcc,55.82
2022-07-30T12:28:00,mcc,55.21
2022-07-30T12:29:00,mcc,62.75
2022-07-30T12:30:00,mcc,59.34
2022-07-30T12:31:00,mcc,56.55
2022-07-30T12:32:00,mcc,56.14
2022-07-30T12:33:00,mcc,55.26
2022-07-30T12:34:00,mcc,55.07
2022-07-30T12:35:00,mcc,64.48
2022-07-30T12:36:00,mcc,54.49
2022-07-30T12:37:00,mcc,56.90
2022-07-30T12:38:00,mcc,54.61
2022-07-30T12:39:00,mcc,54.58
2022-07-30T12:40:00,mcc,68.79
2022-07-30T12:41:00,mcc,68.26
2022-07-30T12:42:00,mcc,57.22
2022-07-30T12:43:00,mcc,59.68
2022-07-30T12:44:00,mcc,57.79
2022-07-30T12:45:00,mcc,57.34
2022-07-30T12:46:00,mcc,59.38
2022-07-30T12:47:00,mcc,56.88
2022-07-30T12:48:00,mcc,57.23
2022-07-30T12:49:00,mcc,55.94
2022-07-30T12:50:00,mcc,58.07
2022-07-30T12:51:00,mcc,56.65
2022-07-30T12:52:00,mcc,55.49
2022-07-30T12:53:00,mcc,57.53
2022-07-30T12:54:00,mcc,55.26
2022-07-30T12:55:00,mcc,54.81
2022-07-30T12:56:00,mcc,56.78
2022-07-30T12:57:00,mcc,53.95
2022-07-30T12:58:00,mcc,55.73
2022-07-30T12:59:00,mcc,57.15
2022-07-30T13:00:00,mcc,52.99
2022-07-30T13:01:00,mcc,52.26
2022-07-30T13:02:00,mcc,54.49
2022-07-30T13:03:00,mcc,52.47
2022-07-30T13:04:00,mcc,51.59
2022-07-30T13:05:00,mcc,51.52
2022-07-30T13:06:00,mcc,53.23
2022-07-30T13:07:00,mcc,51.31
2022-07-30T13:08:00,mcc,54.53
2022-07-30T13:09:00,mcc,65.84
2022-07-30T13:10:00,mcc,54.75
2022-07-30T13:11:00,mcc,54.29
2022-07-30T13:12:00,mcc,52.47
2022-07-30T13:13:00,mcc,53.74
2022-07-30T13:14:00,mcc,55.29
2022-07-30T13:15:00,mcc,55.01
2022-07-30T13:16:00,mcc,53.00
2022-07-30T13:17:00,mcc,53.26
2022-07-30T13:18:00,mcc,52.47